EZY188P EGKK-EGPH

Flight info

Callsign EZY188P
Flight time 1h 8m
Altitude 34000
Route LAM L10 BPK UN601 RIBEL DCT INPIP
Aircraft A320/M-SDE3FGHIRWY/LB1

Departure

Time 2026-04-15 13:23
Airport London Gatwick Airport (EGKK)

Arrival

Time 2026-04-15 14:32
Airport Edinburgh Airport (EGPH)
Time Latitude Longitude Altitude Speed Heading
2026-04-15 12:33 51.15659 -0.17690 208 ft 0 kts 167°
2026-04-15 13:07 51.15664 -0.17692 215 ft 1 kts 167°
2026-04-15 13:07 51.15670 -0.17694 213 ft 1 kts 167°
2026-04-15 13:07 51.15676 -0.17696 207 ft 1 kts 167°
2026-04-15 13:08 51.15682 -0.17698 214 ft 1 kts 167°
2026-04-15 13:08 51.15688 -0.17700 212 ft 1 kts 167°
2026-04-15 13:08 51.15694 -0.17702 210 ft 1 kts 167°
2026-04-15 13:08 51.15700 -0.17704 217 ft 1 kts 167°
2026-04-15 13:09 51.15706 -0.17706 217 ft 1 kts 167°
2026-04-15 13:09 51.15711 -0.17708 216 ft 1 kts 167°
2026-04-15 13:09 51.15716 -0.17710 215 ft 1 kts 167°
2026-04-15 13:09 51.15720 -0.17711 212 ft 1 kts 167°
2026-04-15 13:10 51.15724 -0.17713 211 ft 1 kts 167°
2026-04-15 13:10 51.15729 -0.17714 210 ft 1 kts 167°
2026-04-15 13:10 51.15733 -0.17716 209 ft 1 kts 167°
2026-04-15 13:10 51.15735 -0.17717 212 ft 0 kts 167°
2026-04-15 13:13 51.15734 -0.17715 209 ft 1 kts 159°
2026-04-15 13:13 51.15734 -0.17679 212 ft 7 kts 73°
2026-04-15 13:13 51.15737 -0.17657 218 ft 1 kts 77°
2026-04-15 13:14 51.15742 -0.17627 213 ft 6 kts 77°
2026-04-15 13:14 51.15723 -0.17501 212 ft 15 kts 154°
2026-04-15 13:14 51.15628 -0.17463 213 ft 14 kts 168°
2026-04-15 13:14 51.15613 -0.17458 207 ft 5 kts 168°
2026-04-15 13:15 51.15508 -0.17421 212 ft 25 kts 165°
2026-04-15 13:15 51.15435 -0.17394 210 ft 14 kts 167°
2026-04-15 13:15 51.15369 -0.17370 211 ft 2 kts 167°
2026-04-15 13:15 51.15323 -0.17355 213 ft 12 kts 168°
2026-04-15 13:16 51.15284 -0.17321 213 ft 2 kts 72°
2026-04-15 13:16 51.15317 -0.17209 212 ft 21 kts 76°
2026-04-15 13:16 51.15342 -0.17025 212 ft 16 kts 78°
2026-04-15 13:16 51.15362 -0.16878 217 ft 12 kts 80°
2026-04-15 13:17 51.15367 -0.16814 214 ft 0 kts 70°
2026-04-15 13:17 51.15369 -0.16806 210 ft 0 kts 67°
2026-04-15 13:18 51.15370 -0.16805 210 ft 0 kts 63°
2026-04-15 13:18 51.15369 -0.16805 210 ft 0 kts 62°
2026-04-15 13:20 51.15384 -0.16752 210 ft 0 kts 90°
2026-04-15 13:20 51.15386 -0.16682 208 ft 15 kts 92°
2026-04-15 13:21 51.15326 -0.16648 208 ft 9 kts 222°
2026-04-15 13:21 51.15308 -0.16753 212 ft 12 kts 256°
2026-04-15 13:21 51.15290 -0.16799 213 ft 0 kts 218°
2026-04-15 13:22 51.15286 -0.16803 216 ft 3 kts 218°
2026-04-15 13:22 51.15255 -0.16821 211 ft 7 kts 169°
2026-04-15 13:22 51.15178 -0.16788 212 ft 16 kts 173°
2026-04-15 13:22 51.15109 -0.16888 209 ft 15 kts 269°
2026-04-15 13:23 51.15073 -0.17131 216 ft 51 kts 255°
2026-04-15 13:23 51.14943 -0.18057 213 ft 118 kts 257°
2026-04-15 13:23 51.14741 -0.19620 288 ft 161 kts 255°
2026-04-15 13:23 51.14541 -0.21394 912 ft 160 kts 255°
2026-04-15 13:24 51.14319 -0.23009 1955 ft 140 kts 251°
2026-04-15 13:24 51.14076 -0.24585 2575 ft 161 kts 250°
2026-04-15 13:24 51.13795 -0.26448 3006 ft 188 kts 253°
2026-04-15 13:24 51.13759 -0.28652 3592 ft 211 kts 274°
2026-04-15 13:25 51.14390 -0.30815 3926 ft 227 kts 303°
2026-04-15 13:25 51.15744 -0.32235 3990 ft 246 kts 338°
2026-04-15 13:25 51.17479 -0.32207 3989 ft 259 kts 16°
2026-04-15 13:25 51.18936 -0.30552 3996 ft 261 kts 56°
2026-04-15 13:26 51.19640 -0.27930 4006 ft 258 kts 80°
2026-04-15 13:26 51.20027 -0.25053 4025 ft 277 kts 84°
2026-04-15 13:26 51.20394 -0.21910 4495 ft 298 kts 84°
2026-04-15 13:26 51.20779 -0.18693 5083 ft 291 kts 83°
2026-04-15 13:27 51.21167 -0.15515 5723 ft 292 kts 83°
2026-04-15 13:27 51.21549 -0.12454 6952 ft 270 kts 83°
2026-04-15 13:27 51.21891 -0.09843 8923 ft 223 kts 85°
2026-04-15 13:27 51.22211 -0.07237 9153 ft 262 kts 86°
2026-04-15 13:28 51.22543 -0.04134 8900 ft 299 kts 84°
2026-04-15 13:28 51.22956 -0.00825 9606 ft 303 kts 83°
2026-04-15 13:28 51.23376 0.02398 10822 ft 293 kts 84°
2026-04-15 13:28 51.23786 0.05612 11580 ft 304 kts 84°
2026-04-15 13:29 51.24210 0.09050 11919 ft 329 kts 84°
2026-04-15 13:29 51.24666 0.12764 12300 ft 351 kts 84°
2026-04-15 13:29 51.25149 0.16657 12955 ft 362 kts 84°
2026-04-15 13:29 51.25644 0.20628 13776 ft 368 kts 84°
2026-04-15 13:30 51.26136 0.24596 14222 ft 372 kts 84°
2026-04-15 13:30 51.26639 0.28669 14974 ft 376 kts 84°
2026-04-15 13:30 51.27191 0.32779 15729 ft 383 kts 79°
2026-04-15 13:30 51.28291 0.36712 16451 ft 396 kts 58°
2026-04-15 13:31 51.30211 0.39918 17220 ft 404 kts 40°
2026-04-15 13:31 51.32353 0.42866 17977 ft 408 kts 44°
2026-04-15 13:31 51.34510 0.45856 18607 ft 415 kts 36°
2026-04-15 13:31 51.37097 0.47929 19225 ft 419 kts 16°
2026-04-15 13:32 51.39969 0.48641 20046 ft 419 kts 356°
2026-04-15 13:32 51.42886 0.48339 20628 ft 421 kts 347°
2026-04-15 13:32 51.45653 0.47128 21202 ft 417 kts 333°
2026-04-15 13:32 51.48301 0.45222 21792 ft 418 kts 327°
2026-04-15 13:33 51.50848 0.42961 22374 ft 419 kts 323°
2026-04-15 13:33 51.53337 0.40491 22940 ft 422 kts 321°
2026-04-15 13:33 51.55809 0.37914 23494 ft 426 kts 320°
2026-04-15 13:33 51.58299 0.35284 23963 ft 430 kts 320°
2026-04-15 13:34 51.60813 0.32642 24423 ft 433 kts 320°
2026-04-15 13:34 51.63355 0.29999 24867 ft 437 kts 321°
2026-04-15 13:34 51.65924 0.27352 25308 ft 440 kts 321°
2026-04-15 13:34 51.68483 0.24730 25710 ft 444 kts 321°
2026-04-15 13:35 51.71101 0.22056 26130 ft 447 kts 321°
2026-04-15 13:35 51.73738 0.19365 26534 ft 450 kts 321°
2026-04-15 13:35 51.76397 0.16649 26927 ft 453 kts 321°
2026-04-15 13:35 51.79067 0.13916 27314 ft 457 kts 321°
2026-04-15 13:36 51.81762 0.11153 27700 ft 460 kts 321°
2026-04-15 13:36 51.84470 0.08370 28064 ft 463 kts 321°
2026-04-15 13:36 51.87194 0.05566 28446 ft 466 kts 321°
2026-04-15 13:36 51.89906 0.02771 28807 ft 469 kts 320°
2026-04-15 13:37 51.92664 -0.00076 29172 ft 473 kts 320°
2026-04-15 13:37 51.95446 -0.02953 29505 ft 476 kts 320°
2026-04-15 13:37 51.98245 -0.05851 29833 ft 479 kts 320°
2026-04-15 13:37 52.01058 -0.08769 30118 ft 482 kts 320°
2026-04-15 13:38 52.03888 -0.11708 30391 ft 484 kts 320°
2026-04-15 13:38 52.06735 -0.14668 30667 ft 487 kts 320°
2026-04-15 13:38 52.09589 -0.17640 30947 ft 489 kts 320°
2026-04-15 13:38 52.12420 -0.20592 31237 ft 490 kts 320°
2026-04-15 13:39 52.15327 -0.23628 31611 ft 489 kts 320°
2026-04-15 13:39 52.18150 -0.26577 32000 ft 488 kts 320°
2026-04-15 13:39 52.21004 -0.29566 32373 ft 487 kts 320°
2026-04-15 13:39 52.23856 -0.32558 32732 ft 487 kts 320°
2026-04-15 13:40 52.26702 -0.35551 33079 ft 487 kts 320°
2026-04-15 13:40 52.29545 -0.38545 33425 ft 486 kts 320°
2026-04-15 13:40 52.32386 -0.41542 33771 ft 486 kts 320°
2026-04-15 13:40 52.35222 -0.44538 33935 ft 483 kts 320°
2026-04-15 13:41 52.38015 -0.47483 33954 ft 472 kts 320°
2026-04-15 13:41 52.40721 -0.50340 33952 ft 467 kts 320°
2026-04-15 13:41 52.46163 -0.56124 33946 ft 466 kts 319°
2026-04-15 13:42 52.51603 -0.61933 33944 ft 467 kts 319°
2026-04-15 13:42 52.57052 -0.67762 33948 ft 468 kts 319°
2026-04-15 13:43 52.62511 -0.73613 33941 ft 469 kts 319°
2026-04-15 13:43 52.67940 -0.79448 33946 ft 470 kts 319°
2026-04-15 13:44 52.73416 -0.85351 33948 ft 470 kts 319°
2026-04-15 13:44 52.78911 -0.91298 33996 ft 477 kts 319°
2026-04-15 13:45 52.84513 -0.97388 34160 ft 487 kts 319°
2026-04-15 13:45 52.87352 -1.00476 34291 ft 490 kts 320°
2026-04-15 13:47 53.07125 -1.22092 35916 ft 487 kts 320°
2026-04-15 13:47 53.12725 -1.28265 35920 ft 486 kts 320°
2026-04-15 13:48 53.18356 -1.34490 35914 ft 486 kts 320°
2026-04-15 13:48 53.23984 -1.40734 35906 ft 486 kts 320°
2026-04-15 13:49 53.29620 -1.47007 35900 ft 487 kts 320°
2026-04-15 13:49 53.35220 -1.53259 35894 ft 488 kts 320°
2026-04-15 13:50 53.40865 -1.59581 35887 ft 488 kts 320°
2026-04-15 13:50 53.46513 -1.65928 35887 ft 489 kts 320°
2026-04-15 13:51 53.52160 -1.72293 35886 ft 490 kts 320°
2026-04-15 13:51 53.57786 -1.78656 35886 ft 490 kts 320°
2026-04-15 13:52 53.63449 -1.85081 35882 ft 491 kts 320°
2026-04-15 13:52 53.69116 -1.91533 35882 ft 492 kts 320°
2026-04-15 13:53 53.74786 -1.98010 35878 ft 492 kts 320°
2026-04-15 13:53 53.80420 -2.04466 35873 ft 493 kts 319°
2026-04-15 13:54 53.86091 -2.10986 35872 ft 493 kts 319°
2026-04-15 13:54 53.91765 -2.17531 35870 ft 493 kts 319°
2026-04-15 13:55 53.97440 -2.24100 35856 ft 494 kts 319°
2026-04-15 13:55 54.03407 -2.30003 35858 ft 502 kts 331°
2026-04-15 13:56 54.09827 -2.34599 35840 ft 505 kts 333°
2026-04-15 13:56 54.16331 -2.39128 35839 ft 505 kts 333°
2026-04-15 13:57 54.22833 -2.43654 35836 ft 505 kts 333°
2026-04-15 13:57 54.29337 -2.48194 35602 ft 505 kts 333°
2026-04-15 13:58 54.32591 -2.50472 35365 ft 506 kts 333°
2026-04-15 13:58 54.35792 -2.52716 35129 ft 507 kts 333°
2026-04-15 13:58 54.39084 -2.55028 34890 ft 509 kts 333°
2026-04-15 13:58 54.42369 -2.57339 34657 ft 511 kts 333°
2026-04-15 13:59 54.45657 -2.59655 34325 ft 510 kts 333°
2026-04-15 13:59 54.48961 -2.61988 33391 ft 518 kts 333°
2026-04-15 13:59 54.52320 -2.64366 32541 ft 522 kts 333°
2026-04-15 13:59 54.55664 -2.66732 31883 ft 521 kts 333°
2026-04-15 14:00 54.59028 -2.69117 31159 ft 522 kts 334°
2026-04-15 14:00 54.62345 -2.71475 30444 ft 523 kts 334°
2026-04-15 14:00 54.65706 -2.73868 29668 ft 524 kts 334°
2026-04-15 14:00 54.69070 -2.76266 29135 ft 518 kts 334°
2026-04-15 14:01 54.75609 -2.80936 28301 ft 502 kts 334°
2026-04-15 14:01 54.78823 -2.83242 27747 ft 497 kts 334°
2026-04-15 14:01 54.81992 -2.85517 27019 ft 489 kts 334°
2026-04-15 14:02 54.85102 -2.87755 26374 ft 478 kts 334°
2026-04-15 14:02 54.88091 -2.89907 25950 ft 464 kts 334°
2026-04-15 14:02 54.91014 -2.92014 25737 ft 445 kts 334°
2026-04-15 14:02 54.93820 -2.94041 25501 ft 429 kts 334°
2026-04-15 14:03 54.96539 -2.96011 25027 ft 422 kts 334°
2026-04-15 14:03 54.99279 -2.98005 24221 ft 431 kts 335°
2026-04-15 14:03 55.02065 -3.00036 23451 ft 440 kts 335°
2026-04-15 14:03 55.04917 -3.02115 22544 ft 447 kts 335°
2026-04-15 14:04 55.07781 -3.04200 21641 ft 444 kts 335°
2026-04-15 14:04 55.10590 -3.06247 20850 ft 443 kts 335°
2026-04-15 14:04 55.13390 -3.08291 20465 ft 427 kts 335°
2026-04-15 14:04 55.16072 -3.10248 20203 ft 408 kts 335°
2026-04-15 14:05 55.18637 -3.12125 19937 ft 391 kts 335°
2026-04-15 14:05 55.21108 -3.13937 19705 ft 381 kts 335°
2026-04-15 14:05 55.23529 -3.15719 19422 ft 375 kts 335°
2026-04-15 14:05 55.25928 -3.17487 18833 ft 373 kts 335°
2026-04-15 14:06 55.28281 -3.19214 18261 ft 370 kts 336°
2026-04-15 14:06 55.30780 -3.20200 17588 ft 369 kts 359°
2026-04-15 14:06 55.33331 -3.20035 16943 ft 365 kts
2026-04-15 14:06 55.35858 -3.19622 16144 ft 366 kts
2026-04-15 14:07 55.38421 -3.19174 15122 ft 374 kts
2026-04-15 14:07 55.41034 -3.18731 14121 ft 380 kts
2026-04-15 14:07 55.43675 -3.18297 13116 ft 384 kts
2026-04-15 14:07 55.46352 -3.17867 12051 ft 389 kts
2026-04-15 14:08 55.49085 -3.17433 11014 ft 399 kts
2026-04-15 14:08 55.51876 -3.16991 10019 ft 406 kts
2026-04-15 14:08 55.54705 -3.16545 8975 ft 410 kts
2026-04-15 14:08 55.57510 -3.16102 7958 ft 410 kts
2026-04-15 14:09 55.60284 -3.15662 7213 ft 392 kts
2026-04-15 14:09 55.62926 -3.15242 6856 ft 366 kts
2026-04-15 14:09 55.65360 -3.14854 6769 ft 336 kts
2026-04-15 14:09 55.67593 -3.14500 6753 ft 309 kts
2026-04-15 14:10 55.69665 -3.14173 6759 ft 292 kts
2026-04-15 14:10 55.71681 -3.13824 6757 ft 291 kts
2026-04-15 14:10 55.73692 -3.13362 6748 ft 292 kts
2026-04-15 14:10 55.75699 -3.12865 6744 ft 291 kts
2026-04-15 14:11 55.77675 -3.12368 6748 ft 291 kts
2026-04-15 14:11 55.79681 -3.11862 6751 ft 291 kts
2026-04-15 14:11 55.81686 -3.11357 6751 ft 291 kts
2026-04-15 14:11 55.83690 -3.10852 6748 ft 291 kts
2026-04-15 14:12 55.85696 -3.10346 6743 ft 291 kts
2026-04-15 14:12 55.87697 -3.09842 6748 ft 290 kts
2026-04-15 14:12 55.89696 -3.09337 6727 ft 289 kts
2026-04-15 14:12 55.91662 -3.08840 6537 ft 281 kts
2026-04-15 14:13 55.93550 -3.08361 6341 ft 269 kts
2026-04-15 14:13 55.95357 -3.07903 6016 ft 264 kts
2026-04-15 14:13 55.97164 -3.07444 5623 ft 261 kts
2026-04-15 14:13 55.98951 -3.06991 5222 ft 258 kts
2026-04-15 14:14 56.00726 -3.06542 4818 ft 257 kts
2026-04-15 14:14 56.02473 -3.06612 4383 ft 245 kts 335°
2026-04-15 14:14 56.03721 -3.08263 4108 ft 209 kts 292°
2026-04-15 14:14 56.03991 -3.10524 3575 ft 175 kts 246°
2026-04-15 14:15 56.03494 -3.12330 3254 ft 152 kts 229°
2026-04-15 14:15 56.02894 -3.13822 2919 ft 144 kts 220°
2026-04-15 14:15 56.02289 -3.15177 2696 ft 136 kts 235°
2026-04-15 14:15 56.01902 -3.16528 2651 ft 113 kts 237°
2026-04-15 14:16 56.01917 -3.17950 2275 ft 134 kts 281°
2026-04-15 14:16 56.02489 -3.19548 1592 ft 175 kts 286°
2026-04-15 14:16 56.03051 -3.21752 1854 ft 200 kts 278°
2026-04-15 14:16 56.02961 -3.23926 2894 ft 166 kts 238°
2026-04-15 14:17 56.02595 -3.25898 3820 ft 174 kts 256°
2026-04-15 14:17 56.02889 -3.28003 4199 ft 179 kts 288°
2026-04-15 14:17 56.03591 -3.29848 3882 ft 188 kts 297°
2026-04-15 14:17 56.04459 -3.31738 3356 ft 207 kts 306°
2026-04-15 14:18 56.05790 -3.33065 2863 ft 235 kts 343°
2026-04-15 14:18 56.07442 -3.32906 2715 ft 245 kts 20°
2026-04-15 14:18 56.08871 -3.31242 2663 ft 247 kts 50°
2026-04-15 14:18 56.09968 -3.28903 2686 ft 245 kts 58°
2026-04-15 14:19 56.10992 -3.26469 2687 ft 244 kts 59°
2026-04-15 14:19 56.12007 -3.24028 2685 ft 244 kts 59°
2026-04-15 14:19 56.13019 -3.21576 2681 ft 246 kts 59°
2026-04-15 14:19 56.14016 -3.19116 2687 ft 247 kts 59°
2026-04-15 14:20 56.15036 -3.16600 2687 ft 262 kts 59°
2026-04-15 14:20 56.16149 -3.13816 2679 ft 283 kts 59°
2026-04-15 14:20 56.17286 -3.10979 2695 ft 272 kts 59°
2026-04-15 14:20 56.18284 -3.08252 2702 ft 252 kts 67°
2026-04-15 14:21 56.19087 -3.05554 2699 ft 241 kts 69°
2026-04-15 14:21 56.19716 -3.02831 2699 ft 229 kts 89°
2026-04-15 14:21 56.19566 -3.00190 2736 ft 204 kts 124°
2026-04-15 14:21 56.18750 -2.98276 2709 ft 184 kts 145°
2026-04-15 14:22 56.17827 -2.96877 2706 ft 171 kts 153°
2026-04-15 14:22 56.16761 -2.96172 2710 ft 161 kts 175°
2026-04-15 14:22 56.15680 -2.95954 2702 ft 148 kts 179°
2026-04-15 14:22 56.14721 -2.95810 2703 ft 130 kts 179°
2026-04-15 14:23 56.13832 -2.95675 2705 ft 127 kts 179°
2026-04-15 14:23 56.12947 -2.95539 2703 ft 128 kts 179°
2026-04-15 14:23 56.12061 -2.95402 2702 ft 128 kts 179°
2026-04-15 14:23 56.11174 -2.95265 2700 ft 128 kts 179°
2026-04-15 14:24 56.10286 -2.95128 2698 ft 128 kts 179°
2026-04-15 14:24 56.09486 -2.95547 2680 ft 126 kts 217°
2026-04-15 14:24 56.08882 -2.96697 2697 ft 128 kts 223°
2026-04-15 14:24 56.08341 -2.97971 2689 ft 129 kts 227°
2026-04-15 14:25 56.07848 -2.99318 2687 ft 130 kts 230°
2026-04-15 14:25 56.07382 -3.00695 2689 ft 129 kts 230°
2026-04-15 14:25 56.06919 -3.02068 2690 ft 129 kts 230°
2026-04-15 14:25 56.06455 -3.03437 2687 ft 129 kts 230°
2026-04-15 14:26 56.05991 -3.04801 2705 ft 127 kts 230°
2026-04-15 14:26 56.05538 -3.06135 2695 ft 127 kts 230°
2026-04-15 14:26 56.05078 -3.07490 2691 ft 128 kts 230°
2026-04-15 14:26 56.04617 -3.08852 2687 ft 128 kts 230°
2026-04-15 14:27 56.04157 -3.10215 2691 ft 128 kts 230°
2026-04-15 14:27 56.03698 -3.11576 2687 ft 128 kts 230°
2026-04-15 14:27 56.03238 -3.12938 2686 ft 128 kts 230°
2026-04-15 14:27 56.02778 -3.14300 2689 ft 128 kts 230°
2026-04-15 14:28 56.02317 -3.15661 2695 ft 128 kts 230°
2026-04-15 14:28 56.01856 -3.17024 2599 ft 128 kts 230°
2026-04-15 14:28 56.01400 -3.18370 2447 ft 128 kts 230°
2026-04-15 14:28 56.00942 -3.19726 2272 ft 127 kts 229°
2026-04-15 14:29 56.00486 -3.21072 2101 ft 127 kts 229°
2026-04-15 14:29 56.00029 -3.22420 1920 ft 127 kts 229°
2026-04-15 14:29 55.99572 -3.23768 1752 ft 126 kts 230°
2026-04-15 14:29 55.99121 -3.25102 1614 ft 123 kts 229°
2026-04-15 14:30 55.98679 -3.26404 1424 ft 122 kts 230°
2026-04-15 14:30 55.98234 -3.27714 1245 ft 124 kts 230°
2026-04-15 14:30 55.97788 -3.29031 1061 ft 124 kts 231°
2026-04-15 14:30 55.97343 -3.30344 893 ft 123 kts 231°
2026-04-15 14:31 55.96904 -3.31635 728 ft 123 kts 234°
2026-04-15 14:31 55.96465 -3.32949 525 ft 124 kts 233°
2026-04-15 14:31 55.96027 -3.34246 313 ft 120 kts 234°
2026-04-15 14:31 55.95603 -3.35490 224 ft 117 kts 232°
2026-04-15 14:32 55.95214 -3.36633 116 ft 77 kts 236°
2026-04-15 14:32 55.95055 -3.37080 115 ft 33 kts 238°
2026-04-15 14:32 55.94934 -3.37434 116 ft 34 kts 242°
2026-04-15 14:32 55.94805 -3.37823 120 ft 41 kts 238°
2026-04-15 14:33 55.94717 -3.38045 122 ft 14 kts 203°
2026-04-15 14:33 55.94627 -3.37987 117 ft 15 kts 149°
2026-04-15 14:33 55.94618 -3.37978 119 ft 0 kts 149°
2026-04-15 14:33 55.94606 -3.37959 116 ft 10 kts 137°
2026-04-15 14:34 55.94632 -3.37761 118 ft 16 kts 57°
2026-04-15 14:34 55.94718 -3.37507 116 ft 28 kts 58°
2026-04-15 14:34 55.94821 -3.37202 111 ft 30 kts 59°
2026-04-15 14:34 55.94906 -3.36952 111 ft 14 kts 59°
2026-04-15 14:35 55.94917 -3.36842 113 ft 6 kts 115°
2026-04-15 14:35 55.94900 -3.36776 113 ft 6 kts 96°
2026-04-15 14:35 55.94910 -3.36713 113 ft 5 kts 55°
2026-04-15 14:35 55.94928 -3.36650 113 ft 10 kts 60°
2026-04-15 14:36 55.94978 -3.36501 112 ft 9 kts 60°
2026-04-15 14:36 55.94972 -3.36480 113 ft 3 kts 153°
2026-04-15 14:36 55.94942 -3.36453 112 ft 4 kts 150°
2026-04-15 14:36 55.94921 -3.36431 111 ft 1 kts 149°
2026-04-15 14:37 55.94916 -3.36426 111 ft 1 kts 149°
2026-04-15 14:37 55.94916 -3.36425 111 ft 0 kts 149°